Find Starlink 3182

NORAD ID: 51469 Int'l Des: 2022-010 Owner: SPXS Country: US Constellation: starlink operational
LEOCIRCULAR

Live Position

Loading 3D Globe...

About Starlink 3182

Description loading...

Upcoming Passes

Passes for default location (London). Set your location on the main map for personalized predictions.

Altitude History

Loading altitude history...

Two-Line Element Set

1 51469U 22010P 26121.48960992 .00002216 00000-0 15723-3 0 9991
2 51469 53.2189 42.0904 0001651 78.8574 281.2603 15.08854390234796
Epoch: May 1, 2026 • Age: 15 hours

Current Status

Altitude 541.8 km
Velocity 7.59 km/s
Sub-Earth Point -5.78°S, 39.72°W
Launch Date Feb 3, 2022
Age 4.2 years
Type internet

Technical Details

Classification Payload
Mass 297.00 kg
Dry Mass 275.00 kg
Total Mass 297.00 kg
Length 0.20 m
Diameter 2.80 m
Span 9.00 m
Shape Box + pan
Manufacturer SPXS
Bus Type Starlink
Phase Status In Orbit
Owner/State SPXS/US

Most Searched